Time,TemperatureF,DewpointF,PressureIn,WindDirection,WindDirectionDegrees,WindSpeedMPH,WindSpeedGustMPH,Humidity,HourlyPrecipIn,Conditions,Clouds,dailyrainin,SoftwareType,DateUTC
2013-11-05 00:01:00,34.7,23.0,30.49,ESE,108,0.0,0.0,62,0.00,,,0.00,WeatherCatV1.23B14,2013-11-05 05:01:00,
2013-11-05 00:06:00,34.4,22.8,30.49,ESE,108,0.0,0.0,62,0.00,,,0.00,WeatherCatV1.23B14,2013-11-05 05:06:00,
2013-11-05 00:11:00,33.9,22.6,30.49,ESE,116,0.0,0.0,63,0.00,,,0.00,WeatherCatV1.23B14,2013-11-05 05:11:00,
2013-11-05 00:16:00,33.6,23.1,30.49,ESE,116,0.0,0.0,65,0.00,,,0.00,WeatherCatV1.23B14,2013-11-05 05:16:00,
2013-11-05 00:21:00,33.6,22.4,30.49,ESE,116,0.0,0.0,63,0.00,,,0.00,WeatherCatV1.23B14,2013-11-05 05:21:00,
2013-11-05 00:26:00,33.4,23.6,30.49,ESE,116,0.0,0.0,67,0.00,,,0.00,WeatherCatV1.23B14,2013-11-05 05:26:00,
2013-11-05 00:31:00,33.1,23.7,30.49,ESE,116,0.0,0.0,68,0.00,,,0.00,WeatherCatV1.23B14,2013-11-05 05:31:00,
2013-11-05 00:36:00,32.7,22.6,30.49,ESE,116,0.0,0.0,66,0.00,,,0.00,WeatherCatV1.23B14,2013-11-05 05:36:00,
2013-11-05 00:41:00,32.3,22.6,30.49,ESE,116,0.0,0.0,67,0.00,,,0.00,WeatherCatV1.23B14,2013-11-05 05:41:00,
2013-11-05 00:46:00,31.9,23.2,30.49,ESE,116,0.0,0.0,70,0.00,,,0.00,WeatherCatV1.23B14,2013-11-05 05:46:00,
2013-11-05 00:51:00,31.7,23.4,30.49,ESE,116,0.0,0.0,71,0.00,,,0.00,WeatherCatV1.23B14,2013-11-05 05:51:00,
2013-11-05 00:56:00,31.5,23.5,30.49,ESE,116,0.0,1.0,72,0.00,,,0.00,WeatherCatV1.23B14,2013-11-05 05:56:00,
2013-11-05 01:01:00,31.3,23.7,30.49,SSE,159,0.0,1.0,73,0.00,,,0.00,WeatherCatV1.23B14,2013-11-05 06:01:00,
2013-11-05 01:06:00,31.3,23.7,30.49,SE,136,0.0,1.0,73,0.00,,,0.00,WeatherCatV1.23B14,2013-11-05 06:06:00,
2013-11-05 01:11:00,31.2,22.2,30.49,SE,136,0.0,1.0,69,0.00,,,0.00,WeatherCatV1.23B14,2013-11-05 06:11:00,
2013-11-05 01:16:00,31.4,23.1,30.49,SE,136,0.0,0.0,71,0.00,,,0.00,WeatherCatV1.23B14,2013-11-05 06:16:00,
2013-11-05 01:21:00,31.4,22.1,30.49,SE,136,0.0,0.0,68,0.00,,,0.00,WeatherCatV1.23B14,2013-11-05 06:21:00,
2013-11-05 01:26:00,31.5,21.5,30.49,SE,136,0.0,1.0,66,0.00,,,0.00,WeatherCatV1.23B14,2013-11-05 06:26:00,
2013-11-05 01:31:00,31.8,21.8,30.49,SE,136,0.0,0.0,66,0.00,,,0.00,WeatherCatV1.23B14,2013-11-05 06:31:00,
2013-11-05 01:36:00,32.1,21.3,30.49,SE,136,0.0,0.0,64,0.00,,,0.00,WeatherCatV1.23B14,2013-11-05 06:36:00,
2013-11-05 01:41:00,32.3,23.6,30.50,SE,136,0.0,0.0,70,0.00,,,0.00,WeatherCatV1.23B14,2013-11-05 06:41:00,
2013-11-05 01:46:00,32.1,22.4,30.50,SE,136,0.0,0.0,67,0.00,,,0.00,WeatherCatV1.23B14,2013-11-05 06:46:00,
2013-11-05 01:51:00,32.0,22.6,30.50,SE,136,0.0,0.0,68,0.00,,,0.00,WeatherCatV1.23B14,2013-11-05 06:51:00,
2013-11-05 01:56:00,32.0,22.0,30.50,SE,136,0.0,0.0,66,0.00,,,0.00,WeatherCatV1.23B14,2013-11-05 06:56:00,
2013-11-05 02:01:00,32.2,24.2,30.50,SE,136,0.0,0.0,72,0.00,,,0.00,WeatherCatV1.23B14,2013-11-05 07:01:00,
2013-11-05 02:06:00,32.1,23.1,30.50,SE,136,0.0,0.0,69,0.00,,,0.00,WeatherCatV1.23B14,2013-11-05 07:06:00,
2013-11-05 02:11:00,32.1,21.3,30.50,SE,136,0.0,0.0,64,0.00,,,0.00,WeatherCatV1.23B14,2013-11-05 07:11:00,
2013-11-05 02:16:00,32.2,23.2,30.50,SE,136,0.0,0.0,69,0.00,,,0.00,WeatherCatV1.23B14,2013-11-05 07:16:00,
2013-11-05 02:21:00,32.4,22.0,30.50,SE,136,0.0,1.0,65,0.00,,,0.00,WeatherCatV1.23B14,2013-11-05 07:21:00,
2013-11-05 02:26:00,32.9,22.1,30.50,SE,136,0.0,0.0,64,0.00,,,0.00,WeatherCatV1.23B14,2013-11-05 07:26:00,
2013-11-05 02:31:00,33.5,22.3,30.50,SSE,162,0.0,1.0,63,0.00,,,0.00,WeatherCatV1.23B14,2013-11-05 07:31:00,
2013-11-05 02:36:00,33.9,21.5,30.50,SSW,199,1.0,1.0,60,0.00,,,0.00,WeatherCatV1.23B14,2013-11-05 07:36:00,
2013-11-05 02:41:00,34.2,21.8,30.49,SE,130,0.0,1.0,60,0.00,,,0.00,WeatherCatV1.23B14,2013-11-05 07:41:00,
2013-11-05 02:46:00,34.3,22.6,30.49,SE,131,0.0,0.0,62,0.00,,,0.00,WeatherCatV1.23B14,2013-11-05 07:46:00,
2013-11-05 02:51:00,34.1,21.7,30.49,SE,131,0.0,0.0,60,0.00,,,0.00,WeatherCatV1.23B14,2013-11-05 07:51:00,
2013-11-05 02:56:00,33.9,22.6,30.49,SSE,153,0.0,0.0,63,0.00,,,0.00,WeatherCatV1.23B14,2013-11-05 07:56:00,
2013-11-05 03:01:00,33.7,22.5,30.49,SSE,153,0.0,0.0,63,0.00,,,0.00,WeatherCatV1.23B14,2013-11-05 08:01:00,
2013-11-05 03:06:00,33.5,21.9,30.49,SSE,153,0.0,0.0,62,0.00,,,0.00,WeatherCatV1.23B14,2013-11-05 08:06:00,
2013-11-05 03:11:00,33.3,22.8,30.50,SSE,153,0.0,0.0,65,0.00,,,0.00,WeatherCatV1.23B14,2013-11-05 08:11:00,
2013-11-05 03:16:00,33.0,22.9,30.49,SSE,153,0.0,0.0,66,0.00,,,0.00,WeatherCatV1.23B14,2013-11-05 08:16:00,
2013-11-05 03:21:00,32.8,21.6,30.49,SSE,153,0.0,0.0,63,0.00,,,0.00,WeatherCatV1.23B14,2013-11-05 08:21:00,
2013-11-05 03:26:00,32.8,22.0,30.50,SW,227,0.0,0.0,64,0.00,,,0.00,WeatherCatV1.23B14,2013-11-05 08:26:00,
2013-11-05 03:31:00,32.9,22.8,30.50,SW,227,0.0,0.0,66,0.00,,,0.00,WeatherCatV1.23B14,2013-11-05 08:31:00,
2013-11-05 03:36:00,32.8,23.4,30.50,SW,227,0.0,0.0,68,0.00,,,0.00,WeatherCatV1.23B14,2013-11-05 08:36:00,
2013-11-05 03:41:00,32.5,22.4,30.50,SW,227,0.0,0.0,66,0.00,,,0.00,WeatherCatV1.23B14,2013-11-05 08:41:00,
2013-11-05 03:46:00,32.3,21.9,30.50,SW,225,0.0,1.0,65,0.00,,,0.00,WeatherCatV1.23B14,2013-11-05 08:46:00,
2013-11-05 03:51:00,32.2,21.8,30.50,SW,225,0.0,0.0,65,0.00,,,0.00,WeatherCatV1.23B14,2013-11-05 08:51:00,
2013-11-05 03:56:00,32.0,22.3,30.50,SW,225,0.0,0.0,67,0.00,,,0.00,WeatherCatV1.23B14,2013-11-05 08:56:00,
2013-11-05 04:01:00,31.8,22.1,30.50,SW,225,0.0,0.0,67,0.00,,,0.00,WeatherCatV1.23B14,2013-11-05 09:01:00,
2013-11-05 04:06:00,31.7,22.7,30.50,SW,225,0.0,0.0,69,0.00,,,0.00,WeatherCatV1.23B14,2013-11-05 09:06:00,
2013-11-05 04:11:00,31.7,22.7,30.51,SW,218,0.0,1.0,69,0.00,,,0.00,WeatherCatV1.23B14,2013-11-05 09:11:00,
2013-11-05 04:16:00,32.1,23.1,30.51,SW,218,0.0,0.0,69,0.00,,,0.00,WeatherCatV1.23B14,2013-11-05 09:16:00,
2013-11-05 04:23:00,32.3,21.9,30.50,SW,218,0.0,0.0,65,0.00,,,0.00,WeatherCatV1.23B14,2013-11-05 09:23:00,
2013-11-05 04:28:00,32.5,22.4,30.51,SW,226,0.0,1.0,66,0.00,,,0.00,WeatherCatV1.23B14,2013-11-05 09:28:00,
2013-11-05 04:33:00,32.9,22.4,30.51,SW,226,0.0,0.0,65,0.00,,,0.00,WeatherCatV1.23B14,2013-11-05 09:33:00,
2013-11-05 04:38:00,33.4,22.5,30.51,WSW,239,0.0,1.0,64,0.00,,,0.00,WeatherCatV1.23B14,2013-11-05 09:38:00,
2013-11-05 04:43:00,33.9,22.6,30.51,WSW,243,0.0,0.0,63,0.00,,,0.00,WeatherCatV1.23B14,2013-11-05 09:43:00,
2013-11-05 04:48:00,34.0,22.4,30.50,SW,225,0.0,1.0,62,0.00,,,0.00,WeatherCatV1.23B14,2013-11-05 09:48:00,
2013-11-05 04:53:00,34.1,22.5,30.51,SSE,161,0.0,0.0,62,0.00,,,0.00,WeatherCatV1.23B14,2013-11-05 09:53:00,
2013-11-05 04:58:00,34.3,22.3,30.51,SW,222,0.0,1.0,61,0.00,,,0.00,WeatherCatV1.23B14,2013-11-05 09:58:00,
2013-11-05 05:03:00,34.6,22.5,30.51,West,259,1.0,2.0,61,0.00,,,0.00,WeatherCatV1.23B14,2013-11-05 10:03:00,
2013-11-05 05:08:00,35.1,22.6,30.51,WSW,250,0.0,0.0,60,0.00,,,0.00,WeatherCatV1.23B14,2013-11-05 10:08:00,
2013-11-05 05:13:00,35.4,22.5,30.51,SW,218,1.0,3.0,59,0.00,,,0.00,WeatherCatV1.23B14,2013-11-05 10:13:00,
2013-11-05 05:18:00,35.7,22.8,30.51,WSW,252,0.0,1.0,59,0.00,,,0.00,WeatherCatV1.23B14,2013-11-05 10:18:00,
2013-11-05 05:23:00,35.7,22.4,30.51,WSW,240,0.0,1.0,58,0.00,,,0.00,WeatherCatV1.23B14,2013-11-05 10:23:00,
2013-11-05 05:28:00,35.7,22.8,30.51,SSE,162,0.0,0.0,59,0.00,,,0.00,WeatherCatV1.23B14,2013-11-05 10:28:00,
2013-11-05 05:33:00,35.7,22.8,30.50,WSW,243,0.0,0.0,59,0.00,,,0.00,WeatherCatV1.23B14,2013-11-05 10:33:00,
2013-11-05 05:38:00,35.7,22.8,30.50,SSE,162,0.0,1.0,59,0.00,,,0.00,WeatherCatV1.23B14,2013-11-05 10:38:00,
2013-11-05 05:43:00,35.7,22.8,30.50,NW,315,0.0,1.0,59,0.00,,,0.00,WeatherCatV1.23B14,2013-11-05 10:43:00,
2013-11-05 05:48:00,35.6,22.7,30.50,East,88,0.0,2.0,59,0.00,,,0.00,WeatherCatV1.23B14,2013-11-05 10:48:00,
2013-11-05 05:53:00,35.7,22.8,30.50,South,171,0.0,0.0,59,0.00,,,0.00,WeatherCatV1.23B14,2013-11-05 10:53:00,
2013-11-05 05:58:00,36.0,22.7,30.50,SSE,150,0.0,0.0,58,0.00,,,0.00,WeatherCatV1.23B14,2013-11-05 10:58:00,
2013-11-05 06:03:00,36.1,23.2,30.50,West,259,0.0,1.0,59,0.00,,,0.00,WeatherCatV1.23B14,2013-11-05 11:03:00,
2013-11-05 06:08:00,36.3,23.0,30.50,WSW,249,0.0,3.0,58,0.00,,,0.00,WeatherCatV1.23B14,2013-11-05 11:08:00,
2013-11-05 06:13:00,36.5,23.1,30.50,WSW,252,0.0,1.0,58,0.00,,,0.00,WeatherCatV1.23B14,2013-11-05 11:13:00,
2013-11-05 06:18:00,36.4,23.0,30.50,WSW,252,0.0,1.0,58,0.00,,,0.00,WeatherCatV1.23B14,2013-11-05 11:18:00,
2013-11-05 06:23:00,36.3,23.0,30.50,SW,219,0.0,2.0,58,0.00,,,0.00,WeatherCatV1.23B14,2013-11-05 11:23:00,
2013-11-05 06:28:00,36.3,23.0,30.50,SSE,168,0.0,1.0,58,0.00,,,0.00,WeatherCatV1.23B14,2013-11-05 11:28:00,
2013-11-05 06:33:00,36.3,23.0,30.50,WSW,243,0.0,1.0,58,0.00,,,0.00,WeatherCatV1.23B14,2013-11-05 11:33:00,
2013-11-05 06:38:00,36.3,23.0,30.50,SW,217,0.0,2.0,58,0.00,,,0.00,WeatherCatV1.23B14,2013-11-05 11:38:00,
2013-11-05 06:43:00,36.3,23.4,30.50,SSE,148,0.0,0.0,59,0.00,,,0.00,WeatherCatV1.23B14,2013-11-05 11:43:00,
2013-11-05 06:48:00,36.1,23.6,30.50,WNW,284,0.0,2.0,60,0.00,,,0.00,WeatherCatV1.23B14,2013-11-05 11:48:00,
2013-11-05 06:53:00,36.0,23.5,30.50,SSW,195,0.0,1.0,60,0.00,,,0.00,WeatherCatV1.23B14,2013-11-05 11:53:00,
2013-11-05 06:58:00,35.9,23.4,30.50,WSW,251,0.0,0.0,60,0.00,,,0.00,WeatherCatV1.23B14,2013-11-05 11:58:00,
2013-11-05 07:03:00,36.0,23.5,30.50,ESE,120,1.0,2.0,60,0.00,,,0.00,WeatherCatV1.23B14,2013-11-05 12:03:00,
2013-11-05 07:08:00,36.2,24.1,30.50,SW,216,0.0,3.0,61,0.00,,,0.00,WeatherCatV1.23B14,2013-11-05 12:08:00,
2013-11-05 07:13:00,36.3,23.8,30.50,South,172,0.0,1.0,60,0.00,,,0.00,WeatherCatV1.23B14,2013-11-05 12:13:00,
2013-11-05 07:18:00,36.4,23.9,30.50,SW,221,1.0,2.0,60,0.00,,,0.00,WeatherCatV1.23B14,2013-11-05 12:18:00,
2013-11-05 07:23:00,36.6,24.0,30.50,SW,231,1.0,1.0,60,0.00,,,0.00,WeatherCatV1.23B14,2013-11-05 12:23:00,
2013-11-05 07:28:00,36.8,24.2,30.50,SW,236,0.0,2.0,60,0.00,,,0.00,WeatherCatV1.23B14,2013-11-05 12:28:00,
2013-11-05 07:33:00,36.9,24.3,30.50,South,169,1.0,1.0,60,0.00,,,0.00,WeatherCatV1.23B14,2013-11-05 12:33:00,
2013-11-05 07:38:00,37.2,24.6,30.50,SW,228,1.0,2.0,60,0.00,,,0.00,WeatherCatV1.23B14,2013-11-05 12:38:00,
2013-11-05 07:43:00,37.5,24.9,30.50,SW,222,0.0,2.0,60,0.00,,,0.00,WeatherCatV1.23B14,2013-11-05 12:43:00,
2013-11-05 07:48:00,37.9,24.9,30.50,SE,124,1.0,1.0,59,0.00,,,0.00,WeatherCatV1.23B14,2013-11-05 12:48:00,
2013-11-05 07:53:00,38.1,25.5,30.51,WSW,237,0.0,1.0,60,0.00,,,0.00,WeatherCatV1.23B14,2013-11-05 12:53:00,
2013-11-05 07:58:00,38.4,25.3,30.51,SW,232,0.0,2.0,59,0.00,,,0.00,WeatherCatV1.23B14,2013-11-05 12:58:00,
2013-11-05 08:03:00,38.8,25.3,30.51,West,281,0.0,2.0,58,0.00,,,0.00,WeatherCatV1.23B14,2013-11-05 13:03:00,
2013-11-05 08:08:00,39.2,25.7,30.51,WNW,295,0.0,2.0,58,0.00,,,0.00,WeatherCatV1.23B14,2013-11-05 13:08:00,
2013-11-05 08:13:00,39.6,26.1,30.51,North,7,0.0,2.0,58,0.00,,,0.00,WeatherCatV1.23B14,2013-11-05 13:13:00,
2013-11-05 08:18:00,40.0,26.0,30.51,ESE,110,0.0,5.0,57,0.00,,,0.00,WeatherCatV1.23B14,2013-11-05 13:18:00,
2013-11-05 08:23:00,40.4,26.0,30.51,SE,145,1.0,4.0,56,0.00,,,0.00,WeatherCatV1.23B14,2013-11-05 13:23:00,
2013-11-05 08:28:00,40.8,25.9,30.50,West,273,0.0,3.0,55,0.00,,,0.00,WeatherCatV1.23B14,2013-11-05 13:28:00,
2013-11-05 08:33:00,41.2,25.8,30.51,NW,308,0.0,2.0,54,0.00,,,0.00,WeatherCatV1.23B14,2013-11-05 13:33:00,
2013-11-05 08:38:00,41.6,26.6,30.50,SSE,160,0.0,1.0,55,0.00,,,0.00,WeatherCatV1.23B14,2013-11-05 13:38:00,
2013-11-05 08:43:00,42.1,26.7,30.50,WNW,283,1.0,3.0,54,0.00,,,0.00,WeatherCatV1.23B14,2013-11-05 13:43:00,
2013-11-05 08:48:00,42.5,26.6,30.50,SSW,202,2.0,5.0,53,0.00,,,0.00,WeatherCatV1.23B14,2013-11-05 13:48:00,
2013-11-05 08:53:00,42.7,26.3,30.50,WNW,290,0.0,3.0,52,0.00,,,0.00,WeatherCatV1.23B14,2013-11-05 13:53:00,
2013-11-05 08:58:00,42.8,26.4,30.51,WSW,253,0.0,1.0,52,0.00,,,0.00,WeatherCatV1.23B14,2013-11-05 13:58:00,
2013-11-05 09:03:00,43.2,26.3,30.51,SSW,193,1.0,4.0,51,0.00,,,0.00,WeatherCatV1.23B14,2013-11-05 14:03:00,
2013-11-05 09:08:00,44.0,28.0,30.50,ESE,115,2.0,2.0,53,0.00,,,0.00,WeatherCatV1.23B14,2013-11-05 14:08:00,
2013-11-05 09:13:00,44.6,27.6,30.51,SW,224,0.0,5.0,51,0.00,,,0.00,WeatherCatV1.23B14,2013-11-05 14:13:00,
2013-11-05 09:18:00,45.0,27.0,30.51,WNW,285,3.0,4.0,49,0.00,,,0.00,WeatherCatV1.23B14,2013-11-05 14:18:00,
2013-11-05 09:23:00,45.0,27.0,30.51,SW,231,1.0,3.0,49,0.00,,,0.00,WeatherCatV1.23B14,2013-11-05 14:23:00,
2013-11-05 09:28:00,45.1,27.6,30.50,WSW,238,1.0,4.0,50,0.00,,,0.00,WeatherCatV1.23B14,2013-11-05 14:28:00,
2013-11-05 09:33:00,45.2,27.7,30.50,SW,228,0.0,5.0,50,0.00,,,0.00,WeatherCatV1.23B14,2013-11-05 14:33:00,
2013-11-05 09:38:00,45.4,28.8,30.50,SSW,198,0.0,1.0,52,0.00,,,0.00,WeatherCatV1.23B14,2013-11-05 14:38:00,
2013-11-05 09:43:00,45.6,29.0,30.50,SSE,153,1.0,1.0,52,0.00,,,0.00,WeatherCatV1.23B14,2013-11-05 14:43:00,
2013-11-05 09:48:00,45.9,28.3,30.50,West,265,2.0,4.0,50,0.00,,,0.00,WeatherCatV1.23B14,2013-11-05 14:48:00,
2013-11-05 09:53:00,46.1,28.5,30.50,WNW,290,1.0,3.0,50,0.00,,,0.00,WeatherCatV1.23B14,2013-11-05 14:53:00,
2013-11-05 09:59:00,46.5,28.9,30.50,SW,231,0.0,1.0,50,0.00,,,0.00,WeatherCatV1.23B14,2013-11-05 14:59:00,
2013-11-05 10:04:00,46.9,28.8,30.50,WNW,288,0.0,2.0,49,0.00,,,0.00,WeatherCatV1.23B14,2013-11-05 15:04:00,
2013-11-05 10:09:00,47.3,29.1,30.50,WNW,299,0.0,4.0,49,0.00,,,0.00,WeatherCatV1.23B14,2013-11-05 15:09:00,
2013-11-05 10:14:00,47.7,29.5,30.50,WNW,282,3.0,4.0,49,0.00,,,0.00,WeatherCatV1.23B14,2013-11-05 15:14:00,
2013-11-05 10:19:00,48.1,28.8,30.50,SSW,198,2.0,5.0,47,0.00,,,0.00,WeatherCatV1.23B14,2013-11-05 15:19:00,
2013-11-05 10:24:00,48.3,30.5,30.50,West,264,2.0,2.0,50,0.00,,,0.00,WeatherCatV1.23B14,2013-11-05 15:24:00,
2013-11-05 10:29:00,48.7,29.9,30.50,East,86,0.0,2.0,48,0.00,,,0.00,WeatherCatV1.23B14,2013-11-05 15:29:00,
2013-11-05 10:34:00,49.2,29.8,30.50,SW,224,1.0,2.0,47,0.00,,,0.00,WeatherCatV1.23B14,2013-11-05 15:34:00,
2013-11-05 10:39:00,49.8,30.9,30.49,SSE,155,1.0,4.0,48,0.00,,,0.00,WeatherCatV1.23B14,2013-11-05 15:39:00,
2013-11-05 10:44:00,50.2,31.8,30.49,SSE,160,2.0,3.0,49,0.00,,,0.00,WeatherCatV1.23B14,2013-11-05 15:44:00,
2013-11-05 10:49:00,50.6,31.6,30.49,SSW,192,2.0,5.0,48,0.00,,,0.00,WeatherCatV1.23B14,2013-11-05 15:49:00,
2013-11-05 10:54:00,51.1,32.1,30.49,SE,129,0.0,4.0,48,0.00,,,0.00,WeatherCatV1.23B14,2013-11-05 15:54:00,
2013-11-05 10:59:00,51.3,32.3,30.49,SSW,207,2.0,2.0,48,0.00,,,0.00,WeatherCatV1.23B14,2013-11-05 15:59:00,
2013-11-05 11:04:00,51.6,32.6,30.49,WNW,283,3.0,4.0,48,0.00,,,0.00,WeatherCatV1.23B14,2013-11-05 16:04:00,
2013-11-05 11:09:00,51.7,31.6,30.49,SSE,160,2.0,6.0,46,0.00,,,0.00,WeatherCatV1.23B14,2013-11-05 16:09:00,
2013-11-05 11:14:00,52.0,32.9,30.49,SSE,163,4.0,4.0,48,0.00,,,0.00,WeatherCatV1.23B14,2013-11-05 16:14:00,
2013-11-05 11:19:00,52.5,32.3,30.48,WSW,254,1.0,1.0,46,0.00,,,0.00,WeatherCatV1.23B14,2013-11-05 16:19:00,
2013-11-05 11:24:00,53.0,32.8,30.48,South,172,3.0,3.0,46,0.00,,,0.00,WeatherCatV1.23B14,2013-11-05 16:24:00,
2013-11-05 11:29:00,53.6,33.3,30.48,SW,214,0.0,3.0,46,0.00,,,0.00,WeatherCatV1.23B14,2013-11-05 16:29:00,
2013-11-05 11:34:00,54.1,33.2,30.47,ESE,106,0.0,2.0,45,0.00,,,0.00,WeatherCatV1.23B14,2013-11-05 16:34:00,
2013-11-05 11:39:00,54.6,33.7,30.47,ESE,122,0.0,3.0,45,0.00,,,0.00,WeatherCatV1.23B14,2013-11-05 16:39:00,
2013-11-05 11:44:00,54.9,32.8,30.47,SSE,157,3.0,3.0,43,0.00,,,0.00,WeatherCatV1.23B14,2013-11-05 16:44:00,
2013-11-05 11:49:00,55.2,33.7,30.46,WNW,285,0.0,3.0,44,0.00,,,0.00,WeatherCatV1.23B14,2013-11-05 16:49:00,
2013-11-05 11:54:00,55.4,33.8,30.46,South,180,1.0,3.0,44,0.00,,,0.00,WeatherCatV1.23B14,2013-11-05 16:54:00,
2013-11-05 11:59:00,55.4,33.8,30.46,North,359,2.0,2.0,44,0.00,,,0.00,WeatherCatV1.23B14,2013-11-05 16:59:00,
2013-11-05 12:04:00,55.1,33.0,30.46,WSW,254,1.0,3.0,43,0.00,,,0.00,WeatherCatV1.23B14,2013-11-05 17:04:00,
2013-11-05 12:09:00,54.5,33.0,30.46,NNW,342,0.0,1.0,44,0.00,,,0.00,WeatherCatV1.23B14,2013-11-05 17:09:00,
2013-11-05 12:14:00,54.1,33.2,30.46,WSW,256,0.0,4.0,45,0.00,,,0.00,WeatherCatV1.23B14,2013-11-05 17:14:00,
2013-11-05 12:19:00,53.8,33.0,30.46,NW,307,1.0,2.0,45,0.00,,,0.00,WeatherCatV1.23B14,2013-11-05 17:19:00,
2013-11-05 12:24:00,53.7,33.4,30.45,West,274,0.0,2.0,46,0.00,,,0.00,WeatherCatV1.23B14,2013-11-05 17:24:00,
2013-11-05 12:29:00,53.7,33.4,30.45,WSW,238,0.0,1.0,46,0.00,,,0.00,WeatherCatV1.23B14,2013-11-05 17:29:00,
2013-11-05 12:34:00,53.9,34.1,30.45,SE,137,0.0,1.0,47,0.00,,,0.00,WeatherCatV1.23B14,2013-11-05 17:34:00,
2013-11-05 12:39:00,54.3,35.0,30.45,WNW,292,0.0,1.0,48,0.00,,,0.00,WeatherCatV1.23B14,2013-11-05 17:39:00,
2013-11-05 12:44:00,54.7,34.3,30.45,NNE,22,0.0,1.0,46,0.00,,,0.00,WeatherCatV1.23B14,2013-11-05 17:44:00,
2013-11-05 12:49:00,55.0,34.0,30.45,WSW,252,0.0,1.0,45,0.00,,,0.00,WeatherCatV1.23B14,2013-11-05 17:49:00,
2013-11-05 12:54:00,55.4,34.4,30.45,SSE,155,0.0,1.0,45,0.00,,,0.00,WeatherCatV1.23B14,2013-11-05 17:54:00,
2013-11-05 12:59:00,55.8,34.2,30.45,WNW,300,4.0,4.0,44,0.00,,,0.00,WeatherCatV1.23B14,2013-11-05 17:59:00,
2013-11-05 13:04:00,55.8,34.2,30.44,WNW,289,1.0,2.0,44,0.00,,,0.00,WeatherCatV1.23B14,2013-11-05 18:04:00,
2013-11-05 13:09:00,56.2,35.7,30.44,ESE,106,0.0,2.0,46,0.00,,,0.00,WeatherCatV1.23B14,2013-11-05 18:09:00,
2013-11-05 13:14:00,56.6,35.5,30.44,West,265,0.0,2.0,45,0.00,,,0.00,WeatherCatV1.23B14,2013-11-05 18:14:00,
2013-11-05 13:19:00,56.8,35.1,30.44,WSW,248,1.0,2.0,44,0.00,,,0.00,WeatherCatV1.23B14,2013-11-05 18:19:00,
2013-11-05 13:24:00,57.0,35.3,30.43,WSW,253,0.0,0.0,44,0.00,,,0.00,WeatherCatV1.23B14,2013-11-05 18:24:00,
2013-11-05 13:29:00,57.3,36.1,30.43,SSW,198,2.0,2.0,45,0.00,,,0.00,WeatherCatV1.23B14,2013-11-05 18:29:00,
2013-11-05 13:34:00,57.2,35.5,30.44,SSE,167,1.0,1.0,44,0.00,,,0.00,WeatherCatV1.23B14,2013-11-05 18:34:00,
2013-11-05 13:39:00,57.2,36.0,30.44,West,272,0.0,1.0,45,0.00,,,0.00,WeatherCatV1.23B14,2013-11-05 18:39:00,
2013-11-05 13:44:00,57.0,34.7,30.44,SSE,162,2.0,4.0,43,0.00,,,0.00,WeatherCatV1.23B14,2013-11-05 18:44:00,
2013-11-05 13:49:00,57.0,35.9,30.43,SSE,161,0.0,0.0,45,0.00,,,0.00,WeatherCatV1.23B14,2013-11-05 18:49:00,
2013-11-05 13:54:00,57.0,35.3,30.44,East,81,0.0,1.0,44,0.00,,,0.00,WeatherCatV1.23B14,2013-11-05 18:54:00,
2013-11-05 13:59:00,56.9,35.2,30.43,WSW,252,0.0,1.0,44,0.00,,,0.00,WeatherCatV1.23B14,2013-11-05 18:59:00,
2013-11-05 14:04:00,57.0,35.3,30.43,SE,135,0.0,3.0,44,0.00,,,0.00,WeatherCatV1.23B14,2013-11-05 19:04:00,
2013-11-05 14:09:00,57.1,36.0,30.43,ESE,105,1.0,1.0,45,0.00,,,0.00,WeatherCatV1.23B14,2013-11-05 19:09:00,
2013-11-05 14:14:00,57.4,35.7,30.43,SSE,157,0.0,2.0,44,0.00,,,0.00,WeatherCatV1.23B14,2013-11-05 19:14:00,
2013-11-05 14:19:00,57.9,35.5,30.43,SSE,168,0.0,3.0,43,0.00,,,0.00,WeatherCatV1.23B14,2013-11-05 19:19:00,
2013-11-05 14:24:00,58.1,35.1,30.43,West,280,4.0,5.0,42,0.00,,,0.00,WeatherCatV1.23B14,2013-11-05 19:24:00,
2013-11-05 14:29:00,57.9,35.5,30.43,ESE,104,0.0,3.0,43,0.00,,,0.00,WeatherCatV1.23B14,2013-11-05 19:29:00,
2013-11-05 14:34:00,57.6,35.8,30.43,SSE,147,0.0,2.0,44,0.00,,,0.00,WeatherCatV1.23B14,2013-11-05 19:34:00,
2013-11-05 14:39:00,57.5,35.2,30.43,SSE,159,0.0,4.0,43,0.00,,,0.00,WeatherCatV1.23B14,2013-11-05 19:39:00,
2013-11-05 14:44:00,57.9,36.1,30.43,South,169,0.0,1.0,44,0.00,,,0.00,WeatherCatV1.23B14,2013-11-05 19:44:00,
2013-11-05 14:49:00,58.2,36.4,30.43,WSW,238,0.0,2.0,44,0.00,,,0.00,WeatherCatV1.23B14,2013-11-05 19:49:00,
2013-11-05 14:54:00,58.4,35.4,30.43,SE,146,2.0,2.0,42,0.00,,,0.00,WeatherCatV1.23B14,2013-11-05 19:54:00,
2013-11-05 14:59:00,58.8,35.8,30.43,SW,222,0.0,2.0,42,0.00,,,0.00,WeatherCatV1.23B14,2013-11-05 19:59:00,
2013-11-05 15:04:00,59.0,34.1,30.43,West,279,2.0,4.0,39,0.00,,,0.00,WeatherCatV1.23B14,2013-11-05 20:04:00,
2013-11-05 15:09:00,58.7,35.1,30.43,SW,224,1.0,3.0,41,0.00,,,0.00,WeatherCatV1.23B14,2013-11-05 20:09:00,
2013-11-05 15:14:00,58.0,34.4,30.43,SSE,157,2.0,4.0,41,0.00,,,0.00,WeatherCatV1.23B14,2013-11-05 20:14:00,
2013-11-05 15:19:00,57.4,34.5,30.43,NNW,327,1.0,1.0,42,0.00,,,0.00,WeatherCatV1.23B14,2013-11-05 20:19:00,
2013-11-05 15:24:00,57.1,34.8,30.43,SW,227,0.0,1.0,43,0.00,,,0.00,WeatherCatV1.23B14,2013-11-05 20:24:00,
2013-11-05 15:29:00,56.9,35.2,30.43,SW,234,0.0,1.0,44,0.00,,,0.00,WeatherCatV1.23B14,2013-11-05 20:29:00,
2013-11-05 15:34:00,56.8,34.0,30.43,South,177,0.0,4.0,42,0.00,,,0.00,WeatherCatV1.23B14,2013-11-05 20:34:00,
2013-11-05 15:39:00,56.8,34.5,30.43,East,90,1.0,2.0,43,0.00,,,0.00,WeatherCatV1.23B14,2013-11-05 20:39:00,
2013-11-05 15:44:00,56.8,34.0,30.43,WNW,302,1.0,2.0,42,0.00,,,0.00,WeatherCatV1.23B14,2013-11-05 20:44:00,
2013-11-05 15:49:00,56.6,33.8,30.43,SW,218,0.0,3.0,42,0.00,,,0.00,WeatherCatV1.23B14,2013-11-05 20:49:00,
2013-11-05 15:54:00,56.2,34.0,30.42,SSE,150,2.0,2.0,43,0.00,,,0.00,WeatherCatV1.23B14,2013-11-05 20:54:00,
2013-11-05 15:59:00,55.9,33.7,30.42,SW,230,2.0,2.0,43,0.00,,,0.00,WeatherCatV1.23B14,2013-11-05 20:59:00,
2013-11-05 16:04:00,55.6,33.5,30.42,SSE,160,1.0,1.0,43,0.00,,,0.00,WeatherCatV1.23B14,2013-11-05 21:04:00,
2013-11-05 16:09:00,55.4,33.8,30.42,North,9,1.0,1.0,44,0.00,,,0.00,WeatherCatV1.23B14,2013-11-05 21:09:00,
2013-11-05 16:14:00,55.1,34.1,30.42,East,86,1.0,1.0,45,0.00,,,0.00,WeatherCatV1.23B14,2013-11-05 21:14:00,
2013-11-05 16:19:00,54.8,33.3,30.42,WSW,255,0.0,1.0,44,0.00,,,0.00,WeatherCatV1.23B14,2013-11-05 21:19:00,
2013-11-05 16:24:00,54.6,33.7,30.42,SE,143,0.0,4.0,45,0.00,,,0.00,WeatherCatV1.23B14,2013-11-05 21:24:00,
2013-11-05 16:29:00,54.5,33.6,30.42,SSE,159,0.0,0.0,45,0.00,,,0.00,WeatherCatV1.23B14,2013-11-05 21:29:00,
2013-11-05 16:34:00,54.3,34.0,30.41,SSE,160,0.0,0.0,46,0.00,,,0.00,WeatherCatV1.23B14,2013-11-05 21:34:00,
2013-11-05 16:39:00,54.1,33.8,30.41,SE,140,0.0,1.0,46,0.00,,,0.00,WeatherCatV1.23B14,2013-11-05 21:39:00,
2013-11-05 16:44:00,53.9,34.1,30.41,SSE,167,1.0,1.0,47,0.00,,,0.00,WeatherCatV1.23B14,2013-11-05 21:44:00,
2013-11-05 16:49:00,53.5,33.8,30.41,ESE,105,0.0,1.0,47,0.00,,,0.00,WeatherCatV1.23B14,2013-11-05 21:49:00,
2013-11-05 16:54:00,53.1,33.4,30.41,ESE,108,0.0,1.0,47,0.00,,,0.00,WeatherCatV1.23B14,2013-11-05 21:54:00,
2013-11-05 16:59:00,52.7,33.0,30.41,SSE,152,0.0,0.0,47,0.00,,,0.00,WeatherCatV1.23B14,2013-11-05 21:59:00,
2013-11-05 17:04:00,52.3,33.2,30.41,SSE,152,0.0,0.0,48,0.00,,,0.00,WeatherCatV1.23B14,2013-11-05 22:04:00,
2013-11-05 17:09:00,52.0,32.9,30.42,ESE,118,0.0,1.0,48,0.00,,,0.00,WeatherCatV1.23B14,2013-11-05 22:09:00,
2013-11-05 17:14:00,51.8,33.2,30.42,ESE,118,0.0,1.0,49,0.00,,,0.00,WeatherCatV1.23B14,2013-11-05 22:14:00,
2013-11-05 17:19:00,51.5,34.0,30.42,ESE,117,0.0,0.0,51,0.00,,,0.00,WeatherCatV1.23B14,2013-11-05 22:19:00,
2013-11-05 17:24:00,51.0,34.0,30.42,ESE,118,0.0,0.0,52,0.00,,,0.00,WeatherCatV1.23B14,2013-11-05 22:24:00,
2013-11-05 17:29:00,50.4,33.9,30.42,ESE,117,0.0,0.0,53,0.00,,,0.00,WeatherCatV1.23B14,2013-11-05 22:29:00,
2013-11-05 17:34:00,50.1,33.2,30.42,ENE,77,0.0,0.0,52,0.00,,,0.00,WeatherCatV1.23B14,2013-11-05 22:34:00,
2013-11-05 17:39:00,50.1,33.6,30.43,ENE,77,0.0,1.0,53,0.00,,,0.00,WeatherCatV1.23B14,2013-11-05 22:39:00,
2013-11-05 17:44:00,50.1,33.6,30.43,SSE,167,0.0,0.0,53,0.00,,,0.00,WeatherCatV1.23B14,2013-11-05 22:44:00,
2013-11-05 17:49:00,50.1,33.2,30.42,SE,141,0.0,1.0,52,0.00,,,0.00,WeatherCatV1.23B14,2013-11-05 22:49:00,
2013-11-05 17:54:00,50.2,32.8,30.42,SE,141,0.0,0.0,51,0.00,,,0.00,WeatherCatV1.23B14,2013-11-05 22:54:00,
2013-11-05 17:59:00,50.1,33.2,30.43,ESE,120,0.0,1.0,52,0.00,,,0.00,WeatherCatV1.23B14,2013-11-05 22:59:00,
2013-11-05 18:04:00,50.1,32.7,30.42,ESE,120,0.0,1.0,51,0.00,,,0.00,WeatherCatV1.23B14,2013-11-05 23:04:00,
2013-11-05 18:09:00,49.9,33.0,30.42,SSE,155,0.0,0.0,52,0.00,,,0.00,WeatherCatV1.23B14,2013-11-05 23:09:00,
2013-11-05 18:14:00,49.8,32.9,30.42,ESE,104,0.0,1.0,52,0.00,,,0.00,WeatherCatV1.23B14,2013-11-05 23:14:00,
2013-11-05 18:19:00,49.6,33.6,30.42,ESE,104,0.0,0.0,54,0.00,,,0.00,WeatherCatV1.23B14,2013-11-05 23:19:00,
2013-11-05 18:24:00,48.9,33.9,30.42,ESE,104,0.0,0.0,56,0.00,,,0.00,WeatherCatV1.23B14,2013-11-05 23:24:00,
2013-11-05 18:29:00,48.2,34.1,30.42,ESE,104,0.0,0.0,58,0.00,,,0.00,WeatherCatV1.23B14,2013-11-05 23:29:00,
2013-11-05 18:34:00,47.8,33.3,30.42,ESE,104,0.0,0.0,57,0.00,,,0.00,WeatherCatV1.23B14,2013-11-05 23:34:00,
2013-11-05 18:39:00,47.6,32.7,30.42,ESE,104,0.0,0.0,56,0.00,,,0.00,WeatherCatV1.23B14,2013-11-05 23:39:00,
2013-11-05 18:44:00,48.2,32.3,30.41,ESE,110,1.0,1.0,54,0.00,,,0.00,WeatherCatV1.23B14,2013-11-05 23:44:00,
2013-11-05 18:49:00,48.8,32.9,30.41,ESE,109,0.0,0.0,54,0.00,,,0.00,WeatherCatV1.23B14,2013-11-05 23:49:00,
2013-11-05 18:54:00,48.8,32.9,30.41,SSE,160,0.0,0.0,54,0.00,,,0.00,WeatherCatV1.23B14,2013-11-05 23:54:00,
2013-11-05 18:59:00,48.8,32.9,30.41,SSE,160,0.0,0.0,54,0.00,,,0.00,WeatherCatV1.23B14,2013-11-05 23:59:00,
2013-11-05 19:04:00,48.7,33.3,30.41,SSE,160,0.0,0.0,55,0.00,,,0.00,WeatherCatV1.23B14,2013-11-06 00:04:00,
2013-11-05 19:09:00,48.5,33.1,30.41,SSE,160,0.0,0.0,55,0.00,,,0.00,WeatherCatV1.23B14,2013-11-06 00:09:00,
2013-11-05 19:14:00,48.7,32.8,30.41,ESE,103,0.0,1.0,54,0.00,,,0.00,WeatherCatV1.23B14,2013-11-06 00:14:00,
2013-11-05 19:19:00,48.7,33.3,30.41,ESE,103,0.0,0.0,55,0.00,,,0.00,WeatherCatV1.23B14,2013-11-06 00:19:00,
2013-11-05 19:24:00,48.5,33.5,30.41,ESE,103,0.0,0.0,56,0.00,,,0.00,WeatherCatV1.23B14,2013-11-06 00:24:00,
2013-11-05 19:29:00,48.0,33.5,30.41,ESE,103,0.0,0.0,57,0.00,,,0.00,WeatherCatV1.23B14,2013-11-06 00:29:00,
2013-11-05 19:34:00,47.6,33.6,30.41,ESE,103,0.0,0.0,58,0.00,,,0.00,WeatherCatV1.23B14,2013-11-06 00:34:00,
2013-11-05 19:39:00,47.3,35.0,30.41,ESE,103,0.0,0.0,62,0.00,,,0.00,WeatherCatV1.23B14,2013-11-06 00:39:00,
2013-11-05 19:44:00,47.1,34.3,30.40,ESE,103,0.0,0.0,61,0.00,,,0.00,WeatherCatV1.23B14,2013-11-06 00:44:00,
2013-11-05 19:49:00,46.9,33.8,30.40,ESE,103,0.0,0.0,60,0.00,,,0.00,WeatherCatV1.23B14,2013-11-06 00:49:00,
2013-11-05 19:54:00,46.9,33.8,30.40,ESE,103,0.0,0.0,60,0.00,,,0.00,WeatherCatV1.23B14,2013-11-06 00:54:00,
2013-11-05 19:59:00,47.1,33.1,30.40,WNW,298,0.0,1.0,58,0.00,,,0.00,WeatherCatV1.23B14,2013-11-06 00:59:00,
2013-11-05 20:04:00,47.5,32.6,30.40,SSE,157,0.0,1.0,56,0.00,,,0.00,WeatherCatV1.23B14,2013-11-06 01:04:00,
2013-11-05 20:09:00,48.0,32.2,30.40,SW,224,0.0,1.0,54,0.00,,,0.00,WeatherCatV1.23B14,2013-11-06 01:09:00,
2013-11-05 20:14:00,48.5,31.7,30.40,SSW,201,0.0,1.0,52,0.00,,,0.00,WeatherCatV1.23B14,2013-11-06 01:14:00,
2013-11-05 20:19:00,48.8,31.5,30.39,SSW,200,0.0,1.0,51,0.00,,,0.00,WeatherCatV1.23B14,2013-11-06 01:19:00,
2013-11-05 20:24:00,48.9,31.6,30.39,SE,131,0.0,0.0,51,0.00,,,0.00,WeatherCatV1.23B14,2013-11-06 01:24:00,
2013-11-05 20:29:00,49.1,31.3,30.39,SSE,164,1.0,1.0,50,0.00,,,0.00,WeatherCatV1.23B14,2013-11-06 01:29:00,
2013-11-05 20:34:00,49.3,31.5,30.39,ESE,102,0.0,2.0,50,0.00,,,0.00,WeatherCatV1.23B14,2013-11-06 01:34:00,
2013-11-05 20:39:00,49.5,30.6,30.39,WNW,289,0.0,2.0,48,0.00,,,0.00,WeatherCatV1.23B14,2013-11-06 01:39:00,
2013-11-05 20:44:00,49.6,30.7,30.39,SW,236,0.0,2.0,48,0.00,,,0.00,WeatherCatV1.23B14,2013-11-06 01:44:00,
2013-11-05 20:49:00,49.7,30.8,30.39,SE,145,2.0,2.0,48,0.00,,,0.00,WeatherCatV1.23B14,2013-11-06 01:49:00,
2013-11-05 20:54:00,49.8,31.4,30.39,West,269,0.0,1.0,49,0.00,,,0.00,WeatherCatV1.23B14,2013-11-06 01:54:00,
2013-11-05 20:59:00,49.9,31.0,30.38,WNW,282,0.0,3.0,48,0.00,,,0.00,WeatherCatV1.23B14,2013-11-06 01:59:00,
2013-11-05 21:04:00,49.8,30.4,30.38,WSW,243,0.0,4.0,47,0.00,,,0.00,WeatherCatV1.23B14,2013-11-06 02:04:00,
2013-11-05 21:09:00,49.8,30.9,30.37,SW,214,1.0,2.0,48,0.00,,,0.00,WeatherCatV1.23B14,2013-11-06 02:09:00,
2013-11-05 21:14:00,49.8,30.9,30.37,SSW,203,0.0,1.0,48,0.00,,,0.00,WeatherCatV1.23B14,2013-11-06 02:14:00,
2013-11-05 21:19:00,49.8,30.9,30.38,WSW,245,0.0,1.0,48,0.00,,,0.00,WeatherCatV1.23B14,2013-11-06 02:19:00,
2013-11-05 21:24:00,49.6,30.7,30.38,WSW,247,0.0,1.0,48,0.00,,,0.00,WeatherCatV1.23B14,2013-11-06 02:24:00,
2013-11-05 21:29:00,49.5,30.6,30.38,West,262,0.0,1.0,48,0.00,,,0.00,WeatherCatV1.23B14,2013-11-06 02:29:00,
2013-11-05 21:34:00,49.6,31.2,30.37,West,272,0.0,0.0,49,0.00,,,0.00,WeatherCatV1.23B14,2013-11-06 02:34:00,
2013-11-05 21:39:00,49.6,31.2,30.38,WNW,283,1.0,1.0,49,0.00,,,0.00,WeatherCatV1.23B14,2013-11-06 02:39:00,
2013-11-05 21:44:00,49.6,31.7,30.38,NW,309,0.0,2.0,50,0.00,,,0.00,WeatherCatV1.23B14,2013-11-06 02:44:00,
2013-11-05 21:49:00,49.5,31.1,30.37,West,264,1.0,1.0,49,0.00,,,0.00,WeatherCatV1.23B14,2013-11-06 02:49:00,
2013-11-05 21:54:00,49.5,31.1,30.37,WSW,245,0.0,1.0,49,0.00,,,0.00,WeatherCatV1.23B14,2013-11-06 02:54:00,
2013-11-05 21:59:00,49.5,31.6,30.37,SW,227,0.0,1.0,50,0.00,,,0.00,WeatherCatV1.23B14,2013-11-06 02:59:00,
2013-11-05 22:04:00,49.5,32.1,30.37,South,173,0.0,2.0,51,0.00,,,0.00,WeatherCatV1.23B14,2013-11-06 03:04:00,
2013-11-05 22:09:00,49.4,32.0,30.37,SW,221,0.0,1.0,51,0.00,,,0.00,WeatherCatV1.23B14,2013-11-06 03:09:00,
2013-11-05 22:14:00,49.3,32.4,30.36,SSE,152,0.0,0.0,52,0.00,,,0.00,WeatherCatV1.23B14,2013-11-06 03:14:00,
2013-11-05 22:19:00,49.3,32.4,30.36,SE,137,1.0,5.0,52,0.00,,,0.00,WeatherCatV1.23B14,2013-11-06 03:19:00,
2013-11-05 22:24:00,49.3,32.4,30.36,SSE,151,0.0,1.0,52,0.00,,,0.00,WeatherCatV1.23B14,2013-11-06 03:24:00,
2013-11-05 22:29:00,49.3,32.9,30.36,SSW,195,0.0,0.0,53,0.00,,,0.00,WeatherCatV1.23B14,2013-11-06 03:29:00,
2013-11-05 22:34:00,49.2,32.8,30.36,NW,305,2.0,2.0,53,0.00,,,0.00,WeatherCatV1.23B14,2013-11-06 03:34:00,
2013-11-05 22:39:00,49.1,33.2,30.36,SW,224,0.0,0.0,54,0.00,,,0.00,WeatherCatV1.23B14,2013-11-06 03:39:00,
2013-11-05 22:44:00,49.1,33.2,30.36,WSW,250,0.0,1.0,54,0.00,,,0.00,WeatherCatV1.23B14,2013-11-06 03:44:00,
2013-11-05 22:49:00,49.1,33.2,30.36,West,270,1.0,1.0,54,0.00,,,0.00,WeatherCatV1.23B14,2013-11-06 03:49:00,
2013-11-05 22:54:00,49.1,33.6,30.35,WSW,256,0.0,0.0,55,0.00,,,0.00,WeatherCatV1.23B14,2013-11-06 03:54:00,
2013-11-05 22:59:00,48.9,33.5,30.36,SE,146,0.0,0.0,55,0.00,,,0.00,WeatherCatV1.23B14,2013-11-06 03:59:00,
2013-11-05 23:04:00,48.8,33.4,30.35,SSE,156,1.0,1.0,55,0.00,,,0.00,WeatherCatV1.23B14,2013-11-06 04:04:00,
2013-11-05 23:09:00,48.7,33.3,30.35,SSE,156,0.0,0.0,55,0.00,,,0.00,WeatherCatV1.23B14,2013-11-06 04:09:00,
2013-11-05 23:14:00,48.6,33.6,30.36,SSE,156,0.0,0.0,56,0.00,,,0.00,WeatherCatV1.23B14,2013-11-06 04:14:00,
2013-11-05 23:19:00,48.5,34.0,30.36,South,176,0.0,0.0,57,0.00,,,0.00,WeatherCatV1.23B14,2013-11-06 04:19:00,
2013-11-05 23:24:00,48.5,33.5,30.36,ESE,104,0.0,1.0,56,0.00,,,0.00,WeatherCatV1.23B14,2013-11-06 04:24:00,
2013-11-05 23:29:00,48.7,33.3,30.36,WSW,250,1.0,2.0,55,0.00,,,0.00,WeatherCatV1.23B14,2013-11-06 04:29:00,
2013-11-05 23:34:00,48.9,33.5,30.36,ESE,102,0.0,3.0,55,0.00,,,0.00,WeatherCatV1.23B14,2013-11-06 04:34:00,
2013-11-05 23:39:00,49.0,34.0,30.36,WSW,257,3.0,5.0,56,0.00,,,0.00,WeatherCatV1.23B14,2013-11-06 04:39:00,
2013-11-05 23:44:00,49.1,33.6,30.36,SSW,210,0.0,2.0,55,0.00,,,0.00,WeatherCatV1.23B14,2013-11-06 04:44:00,
2013-11-05 23:49:00,49.2,33.7,30.35,SW,223,0.0,3.0,55,0.00,,,0.00,WeatherCatV1.23B14,2013-11-06 04:49:00,
2013-11-05 23:54:00,49.2,34.2,30.35,WSW,253,0.0,1.0,56,0.00,,,0.00,WeatherCatV1.23B14,2013-11-06 04:54:00,
2013-11-05 23:59:00,49.2,34.2,30.35,West,271,3.0,3.0,56,0.00,,,0.00,WeatherCatV1.23B14,2013-11-06 04:59:00,